Regional Weather Roundup
Issued by NWS

Home | Current Version | Previous Version | Graphics & Text | Print | Product List | Glossary On
Versions: 1 2 3 4 5 6 7 8 9 10 11 12 13 14 15 16 17 18 19 20 21 22 23 24 25 26 27 28 29 30 31 32 33 34 35 36 37 38 39 40 41 42 43 44 45 46 47 48 49 50
000
ASUS43 KOAX 211010
RWRNE

WEATHER ROUNDUP FOR NEBRASKA
NATIONAL WEATHER SERVICE OMAHA NE
500 AM CDT MON AUG 21 2017

NOTES: SATELLITE DATA IS BEING USED TO AUGMENT CLOUD COVER ABOVE
       12000 FEET.
       "FAIR" INDICATES FEW OR NO CLOUDS BELOW 12,000 FEET WITH NO
       SIGNIFICANT WEATHER AND/OR OBSTRUCTIONS TO VISIBILITY.


NEZ001>004-019>022-054>056-211100-
NEBRASKA PANHANDLE

CITY           SKY/WX    TMP DP  RH WIND       PRES   REMARKS
SCOTTSBLUFF    CLEAR     64  61  90 E6        30.01F FOG
ALLIANCE       FOG       67  67 100 S6        30.00F VSB 1/2
CHADRON        CLOUDY    70  66  87 SW8       29.95F
GORDON         FOG       69  67  96 SE3       29.98S VSB 1
KIMBALL        CLEAR     60  60 100 W6        30.08S
SIDNEY         FOG       63  63 100 NW5       30.03F VSB 1/4
$$

NEZ057>060-069>072-079>082-211100-
SOUTHWEST NEBRASKA

CITY           SKY/WX    TMP DP  RH WIND       PRES   REMARKS
NORTH PLATTE   FOG       72  71  97 E5        29.94F VSB 1/4
IMPERIAL       CLEAR     64  61  90 CALM      29.97S
LEXINGTON      FOG       67  66  95 CALM      29.93F VSB 1/4
MCCOOK         CLEAR     71  64  78 SW7       29.93F
OGALLALA       FOG       71  70  96 E5        29.97F VSB 1/2
$$

NEZ005>010-023>029-035>040-094-211100-
NORTH CENTRAL NEBRASKA

CITY           SKY/WX    TMP DP  RH WIND       PRES   REMARKS
VALENTINE      FOG       65  61  87 CALM      29.96F VSB 1/2
AINSWORTH      CLOUDY    68  68 100 CALM      29.97S FOG
BROKEN BOW     FOG       70  69  97 NW3       29.93S VSB 1/2
O`NEILL        CLOUDY    68  68 100 NE5       29.96R FOG
ORD            CLOUDY    68  65  90 CALM      29.92R
THEDFORD       CLOUDY    70  69  97 NW3       29.98S FOG
$$

NEZ041-046>049-061>064-073>077-083>087-211100-
SOUTH CENTRAL NEBRASKA

CITY           SKY/WX    TMP DP  RH WIND       PRES   REMARKS
GRAND ISLAND   CLEAR     71  69  93 S5        29.93S
AURORA         CLEAR     72  70  93 SW6       29.93R
HASTINGS       CLEAR     72  67  84 S5        29.95R
HEBRON         CLEAR     76  68  76 S9        29.95R
HOLDREGE       CLEAR     69  64  82 SW6       29.94R
KEARNEY        CLEAR     70  66  87 S3        29.94R
YORK           PTCLDY    73  70  88 S7        29.93R
$$

NEZ011>018-030>034-042>045-211100-
NORTHEAST NEBRASKA

CITY           SKY/WX    TMP DP  RH WIND       PRES   REMARKS
NORFOLK        CLEAR     68  66  93 SE16      29.95S
ALBION         CLOUDY    69  68  96 E8        29.94R
BLAIR          CLOUDY    71  63  77 SE10G23   30.01S
COLUMBUS       CLEAR     71  70  96 E9        29.96R
FREMONT        CLOUDY    70  62  75 E14G20    29.99S
TEKAMAH        CLOUDY    71  62  73 SE12G21   29.99R
WAYNE          CLOUDY    67  65  91 SE7       29.97R
$$

NEZ050>053-065>068-078-088>093-211100-
SOUTHEAST NEBRASKA

CITY           SKY/WX    TMP DP  RH WIND       PRES   REMARKS
LINCOLN        CLOUDY    77  71  82 E12       29.96R
OMAHA EPPLEY   CLOUDY    72  64  76 E28G33    30.00F
BEATRICE       CLEAR     78  71  77 SW9       29.95R
FALLS CITY     CLEAR     75  72  90 SE6       29.96R
NEBRASKA CITY  PTCLDY    69  69  99 NE9G16    30.01R
PLATTSMOUTH    CLOUDY    69  64  85 E15G21    30.01S
$$

NEZ044-045-051>053-067-211100-
OMAHA AREA

CITY           SKY/WX    TMP DP  RH WIND       PRES   REMARKS
OMAHA EPPLEY   CLOUDY    72  64  76 E28G33    30.00F
BLAIR          CLOUDY    71  63  77 SE10G23   30.01S
FREMONT        CLOUDY    70  62  75 E14G20    29.99S
MILLARD        CLOUDY    73  65  76 E7        30.00S
OFFUTT AFB     LGT RAIN  70  64  83 NE12G18   30.01R
PLATTSMOUTH    CLOUDY    69  64  85 E15G21    30.01S
WAHOO          CLOUDY    70  65  83 E7G17     29.98R
$$




USA.gov is the U.S. government's official web portal to all federal, state and local government web resources and services.